Time,TemperatureF,DewpointF,PressureIn,WindDirection,WindDirectionDegrees,WindSpeedMPH,WindSpeedGustMPH,Humidity,HourlyPrecipIn,Conditions,Clouds,dailyrainin,SoftwareType,DateUTC
2013-05-12 00:01:00,53.0,29.0,-100.00,ESE,115,1.0,1.0,39,-99.99,,,-99.99,,2013-05-12 07:01:00,
2013-05-12 00:11:00,52.0,29.0,-100.00,East,99,1.0,1.0,41,-99.99,,,-99.99,,2013-05-12 07:11:00,
2013-05-12 00:21:00,52.0,29.0,-100.00,ESE,112,1.0,1.0,41,-99.99,,,-99.99,,2013-05-12 07:21:00,
2013-05-12 00:32:00,52.0,29.0,-100.00,East,101,1.0,1.0,41,-99.99,,,-99.99,,2013-05-12 07:32:00,
2013-05-12 00:42:00,52.0,29.0,-100.00,East,101,1.0,1.0,41,-99.99,,,-99.99,,2013-05-12 07:42:00,
2013-05-12 00:52:00,52.0,30.0,-100.00,ESE,119,1.0,1.0,42,-99.99,,,-99.99,,2013-05-12 07:52:00,
2013-05-12 01:02:00,52.0,30.0,-100.00,East,98,1.0,1.0,42,-99.99,,,-99.99,,2013-05-12 08:02:00,
2013-05-12 01:11:00,51.0,29.0,-100.00,ESE,108,1.0,2.0,43,-99.99,,,-99.99,,2013-05-12 08:11:00,
2013-05-12 01:21:00,51.0,29.0,-100.00,East,86,1.0,1.0,43,-99.99,,,-99.99,,2013-05-12 08:21:00,
2013-05-12 01:31:00,51.0,29.0,-100.00,ESE,105,1.0,1.0,42,-99.99,,,-99.99,,2013-05-12 08:31:00,
2013-05-12 01:41:00,52.0,30.0,-100.00,ESE,111,1.0,2.0,42,-99.99,,,-99.99,,2013-05-12 08:41:00,
2013-05-12 01:52:00,52.0,30.0,-100.00,East,83,1.0,1.0,42,-99.99,,,-99.99,,2013-05-12 08:52:00,
2013-05-12 02:01:00,52.0,30.0,-100.00,ESE,103,1.0,1.0,42,-99.99,,,-99.99,,2013-05-12 09:01:00,
2013-05-12 02:11:00,52.0,30.0,-100.00,East,94,1.0,2.0,42,-99.99,,,-99.99,,2013-05-12 09:11:00,
2013-05-12 02:21:00,51.0,29.0,-100.00,East,91,1.0,1.0,43,-99.99,,,-99.99,,2013-05-12 09:21:00,
2013-05-12 02:32:00,52.0,29.0,-100.00,East,95,1.0,2.0,41,-99.99,,,-99.99,,2013-05-12 09:32:00,
2013-05-12 02:42:00,52.0,29.0,-100.00,East,88,1.0,1.0,41,-99.99,,,-99.99,,2013-05-12 09:42:00,
2013-05-12 02:52:00,52.0,29.0,-100.00,East,92,1.0,1.0,41,-99.99,,,-99.99,,2013-05-12 09:52:00,
2013-05-12 03:02:00,52.0,29.0,-100.00,East,83,1.0,1.0,41,-99.99,,,-99.99,,2013-05-12 10:02:00,
2013-05-12 03:12:00,52.0,28.0,-100.00,East,94,1.0,1.0,40,-99.99,,,-99.99,,2013-05-12 10:12:00,
2013-05-12 03:22:00,52.0,29.0,-100.00,ENE,68,1.0,2.0,41,-99.99,,,-99.99,,2013-05-12 10:22:00,
2013-05-12 03:33:00,52.0,30.0,-100.00,East,96,1.0,2.0,42,-99.99,,,-99.99,,2013-05-12 10:33:00,
2013-05-12 03:42:00,52.0,29.0,-100.00,ENE,69,1.0,1.0,41,-99.99,,,-99.99,,2013-05-12 10:42:00,
2013-05-12 03:52:00,52.0,29.0,-100.00,East,97,1.0,2.0,41,-99.99,,,-99.99,,2013-05-12 10:52:00,
2013-05-12 04:02:00,53.0,29.0,-100.00,East,94,1.0,1.0,39,-99.99,,,-99.99,,2013-05-12 11:02:00,
2013-05-12 04:12:00,53.0,29.0,-100.00,East,100,1.0,1.0,39,-99.99,,,-99.99,,2013-05-12 11:12:00,
2013-05-12 04:21:00,53.0,29.0,-100.00,ESE,108,1.0,1.0,39,-99.99,,,-99.99,,2013-05-12 11:21:00,
2013-05-12 04:32:00,53.0,29.0,-100.00,ESE,110,1.0,1.0,39,-99.99,,,-99.99,,2013-05-12 11:32:00,
2013-05-12 04:42:00,53.0,29.0,-100.00,East,101,1.0,1.0,40,-99.99,,,-99.99,,2013-05-12 11:42:00,
2013-05-12 04:51:00,53.0,29.0,-100.00,ESE,104,1.0,1.0,39,-99.99,,,-99.99,,2013-05-12 11:51:00,
2013-05-12 05:01:00,53.0,29.0,-100.00,ESE,104,1.0,1.0,39,-99.99,,,-99.99,,2013-05-12 12:01:00,
2013-05-12 05:11:00,53.0,29.0,-100.00,ESE,107,1.0,1.0,39,-99.99,,,-99.99,,2013-05-12 12:11:00,
2013-05-12 05:21:00,53.0,28.0,-100.00,East,90,1.0,1.0,38,-99.99,,,-99.99,,2013-05-12 12:21:00,
2013-05-12 05:32:00,53.0,29.0,-100.00,East,83,1.0,1.0,39,-99.99,,,-99.99,,2013-05-12 12:32:00,
2013-05-12 05:41:00,53.0,29.0,-100.00,East,83,1.0,1.0,39,-99.99,,,-99.99,,2013-05-12 12:41:00,
2013-05-12 05:51:00,53.0,29.0,-100.00,East,97,1.0,1.0,40,-99.99,,,-99.99,,2013-05-12 12:51:00,
2013-05-12 06:01:00,53.0,29.0,-100.00,ESE,107,1.0,1.0,40,-99.99,,,-99.99,,2013-05-12 13:01:00,
2013-05-12 06:11:00,53.0,29.0,-100.00,East,87,1.0,1.0,40,-99.99,,,-99.99,,2013-05-12 13:11:00,
2013-05-12 06:21:00,53.0,29.0,-100.00,East,100,1.0,1.0,40,-99.99,,,-99.99,,2013-05-12 13:21:00,
2013-05-12 06:31:00,53.0,29.0,-100.00,East,98,1.0,1.0,40,-99.99,,,-99.99,,2013-05-12 13:31:00,
2013-05-12 06:41:00,54.0,30.0,-100.00,ESE,103,1.0,1.0,39,-99.99,,,-99.99,,2013-05-12 13:41:00,
2013-05-12 06:52:00,54.0,30.0,-100.00,East,98,1.0,2.0,40,-99.99,,,-99.99,,2013-05-12 13:52:00,
2013-05-12 07:01:00,54.0,30.0,-100.00,East,98,1.0,2.0,40,-99.99,,,-99.99,,2013-05-12 14:01:00,
2013-05-12 07:11:00,53.0,32.0,-100.00,East,92,1.0,1.0,44,-99.99,,,-99.99,,2013-05-12 14:11:00,
2013-05-12 07:21:00,53.0,32.0,-100.00,East,97,1.0,1.0,45,-99.99,,,-99.99,,2013-05-12 14:21:00,
2013-05-12 07:31:00,54.0,33.0,-100.00,ESE,114,1.0,2.0,44,-99.99,,,-99.99,,2013-05-12 14:31:00,
2013-05-12 07:42:00,55.0,33.0,-100.00,ESE,110,1.0,2.0,43,-99.99,,,-99.99,,2013-05-12 14:42:00,
2013-05-12 07:52:00,57.0,34.0,-100.00,ESE,105,1.0,3.0,42,-99.99,,,-99.99,,2013-05-12 14:52:00,
2013-05-12 08:01:00,57.0,34.0,-100.00,ESE,105,1.0,3.0,42,-99.99,,,-99.99,,2013-05-12 15:01:00,
2013-05-12 08:11:00,60.0,36.0,-100.00,ESE,111,1.0,1.0,41,-99.99,,,-99.99,,2013-05-12 15:11:00,
2013-05-12 08:21:00,62.0,37.0,-100.00,ESE,121,1.0,1.0,39,-99.99,,,-99.99,,2013-05-12 15:21:00,
2013-05-12 08:33:00,64.0,36.0,-100.00,NE,46,1.0,1.0,35,-99.99,,,-99.99,,2013-05-12 15:33:00,
2013-05-12 08:42:00,66.0,33.0,-100.00,SSW,205,1.0,2.0,29,-99.99,,,-99.99,,2013-05-12 15:42:00,
2013-05-12 08:52:00,67.0,31.0,-100.00,SE,132,1.0,4.0,26,-99.99,,,-99.99,,2013-05-12 15:52:00,
2013-05-12 09:02:00,67.0,31.0,-100.00,SE,132,1.0,4.0,26,-99.99,,,-99.99,,2013-05-12 16:02:00,
2013-05-12 09:12:00,70.0,29.0,-100.00,NNE,30,1.0,4.0,22,-99.99,,,-99.99,,2013-05-12 16:12:00,
2013-05-12 09:23:00,71.0,29.0,-100.00,NE,39,1.0,4.0,21,-99.99,,,-99.99,,2013-05-12 16:23:00,
2013-05-12 09:32:00,71.0,28.0,-100.00,East,82,1.0,5.0,20,-99.99,,,-99.99,,2013-05-12 16:32:00,
2013-05-12 09:42:00,70.0,28.0,-100.00,NNE,15,3.0,7.0,21,-99.99,,,-99.99,,2013-05-12 16:42:00,
2013-05-12 09:52:00,71.0,28.0,-100.00,ENE,60,1.0,4.0,20,-99.99,,,-99.99,,2013-05-12 16:52:00,
2013-05-12 10:01:00,72.0,29.0,-100.00,ENE,66,1.0,5.0,20,-99.99,,,-99.99,,2013-05-12 17:01:00,
2013-05-12 10:11:00,71.0,28.0,-100.00,NNE,16,2.0,6.0,20,-99.99,,,-99.99,,2013-05-12 17:11:00,
2013-05-12 10:22:00,71.0,28.0,-100.00,NE,54,2.0,8.0,20,-99.99,,,-99.99,,2013-05-12 17:22:00,
2013-05-12 10:32:00,71.0,28.0,-100.00,NNE,25,2.0,5.0,20,-99.99,,,-99.99,,2013-05-12 17:32:00,
2013-05-12 10:42:00,72.0,27.0,-100.00,NE,35,2.0,5.0,19,-99.99,,,-99.99,,2013-05-12 17:42:00,
2013-05-12 10:52:00,72.0,27.0,-100.00,NNE,24,2.0,6.0,19,-99.99,,,-99.99,,2013-05-12 17:52:00,
2013-05-12 11:01:00,72.0,27.0,-100.00,NNE,19,2.0,5.0,19,-99.99,,,-99.99,,2013-05-12 18:01:00,
2013-05-12 11:12:00,72.0,27.0,-100.00,NW,321,2.0,8.0,19,-99.99,,,-99.99,,2013-05-12 18:12:00,
2013-05-12 11:22:00,72.0,27.0,-100.00,East,95,3.0,10.0,19,-99.99,,,-99.99,,2013-05-12 18:22:00,
2013-05-12 11:31:00,71.0,27.0,-100.00,North,9,2.0,5.0,19,-99.99,,,-99.99,,2013-05-12 18:31:00,
2013-05-12 11:41:00,72.0,27.0,-100.00,West,278,2.0,7.0,19,-99.99,,,-99.99,,2013-05-12 18:41:00,
2013-05-12 11:51:00,73.0,28.0,-100.00,NNE,30,2.0,7.0,19,-99.99,,,-99.99,,2013-05-12 18:51:00,
2013-05-12 12:01:00,73.0,28.0,-100.00,NNE,30,2.0,7.0,19,-99.99,,,-99.99,,2013-05-12 19:01:00,
2013-05-12 12:11:00,73.0,27.0,-100.00,NNE,13,2.0,5.0,18,-99.99,,,-99.99,,2013-05-12 19:11:00,
2013-05-12 12:21:00,73.0,27.0,-100.00,NE,38,3.0,11.0,18,-99.99,,,-99.99,,2013-05-12 19:21:00,
2013-05-12 12:32:00,73.0,27.0,-100.00,NNE,29,3.0,8.0,18,-99.99,,,-99.99,,2013-05-12 19:32:00,
2013-05-12 12:41:00,73.0,27.0,-100.00,NNE,32,3.0,14.0,18,-99.99,,,-99.99,,2013-05-12 19:41:00,
2013-05-12 12:52:00,73.0,27.0,-100.00,ENE,75,3.0,10.0,18,-99.99,,,-99.99,,2013-05-12 19:52:00,
2013-05-12 13:02:00,72.0,27.0,-100.00,SE,128,3.0,14.0,19,-99.99,,,-99.99,,2013-05-12 20:02:00,
2013-05-12 13:11:00,73.0,27.0,-100.00,ENE,60,3.0,6.0,18,-99.99,,,-99.99,,2013-05-12 20:11:00,
2013-05-12 13:21:00,73.0,27.0,-100.00,NE,42,2.0,7.0,18,-99.99,,,-99.99,,2013-05-12 20:21:00,
2013-05-12 13:32:00,74.0,26.0,-100.00,NE,56,2.0,4.0,17,-99.99,,,-99.99,,2013-05-12 20:32:00,
2013-05-12 13:41:00,74.0,26.0,-100.00,ENE,62,2.0,6.0,17,-99.99,,,-99.99,,2013-05-12 20:41:00,
2013-05-12 13:51:00,74.0,26.0,-100.00,South,173,2.0,9.0,17,-99.99,,,-99.99,,2013-05-12 20:51:00,
2013-05-12 14:01:00,74.0,26.0,-100.00,NE,53,2.0,5.0,17,-99.99,,,-99.99,,2013-05-12 21:01:00,
2013-05-12 14:11:00,74.0,25.0,-100.00,East,101,3.0,10.0,16,-99.99,,,-99.99,,2013-05-12 21:11:00,
2013-05-12 14:21:00,75.0,26.0,-100.00,NE,44,3.0,15.0,16,-99.99,,,-99.99,,2013-05-12 21:21:00,
2013-05-12 14:32:00,75.0,26.0,-100.00,WNW,294,2.0,7.0,16,-99.99,,,-99.99,,2013-05-12 21:32:00,
2013-05-12 14:42:00,75.0,24.0,-100.00,NE,45,2.0,8.0,15,-99.99,,,-99.99,,2013-05-12 21:42:00,
2013-05-12 14:52:00,74.0,23.0,-100.00,North,356,3.0,7.0,15,-99.99,,,-99.99,,2013-05-12 21:52:00,
2013-05-12 15:02:00,74.0,23.0,-100.00,North,356,3.0,7.0,15,-99.99,,,-99.99,,2013-05-12 22:02:00,
2013-05-12 15:12:00,74.0,25.0,-100.00,ESE,116,3.0,9.0,16,-99.99,,,-99.99,,2013-05-12 22:12:00,
2013-05-12 15:22:00,74.0,25.0,-100.00,ESE,114,4.0,12.0,16,-99.99,,,-99.99,,2013-05-12 22:22:00,
2013-05-12 15:32:00,74.0,25.0,-100.00,ESE,105,3.0,11.0,16,-99.99,,,-99.99,,2013-05-12 22:32:00,
2013-05-12 15:42:00,75.0,26.0,-100.00,NNE,32,2.0,8.0,16,-99.99,,,-99.99,,2013-05-12 22:42:00,
2013-05-12 15:52:00,73.0,24.0,-100.00,SE,131,3.0,13.0,16,-99.99,,,-99.99,,2013-05-12 22:52:00,
2013-05-12 16:02:00,74.0,25.0,-100.00,ESE,113,4.0,15.0,16,-99.99,,,-99.99,,2013-05-12 23:02:00,
2013-05-12 16:11:00,74.0,25.0,-100.00,NE,34,3.0,10.0,16,-99.99,,,-99.99,,2013-05-12 23:11:00,
2013-05-12 16:22:00,74.0,25.0,-100.00,East,96,3.0,9.0,16,-99.99,,,-99.99,,2013-05-12 23:22:00,
2013-05-12 16:32:00,73.0,24.0,-100.00,NW,313,3.0,10.0,16,-99.99,,,-99.99,,2013-05-12 23:32:00,
2013-05-12 16:42:00,75.0,24.0,-100.00,West,278,2.0,5.0,15,-99.99,,,-99.99,,2013-05-12 23:42:00,
2013-05-12 16:51:00,74.0,22.0,-100.00,North,3,4.0,17.0,14,-99.99,,,-99.99,,2013-05-12 23:51:00,
2013-05-12 17:01:00,74.0,23.0,-100.00,NNW,333,3.0,8.0,15,-99.99,,,-99.99,,2013-05-13 00:01:00,
2013-05-12 17:11:00,74.0,22.0,-100.00,ENE,70,3.0,10.0,14,-99.99,,,-99.99,,2013-05-13 00:11:00,
2013-05-12 17:21:00,73.0,23.0,-100.00,NNW,343,3.0,10.0,15,-99.99,,,-99.99,,2013-05-13 00:21:00,
2013-05-12 17:32:00,74.0,23.0,-100.00,WNW,290,3.0,8.0,15,-99.99,,,-99.99,,2013-05-13 00:32:00,
2013-05-12 17:41:00,74.0,23.0,-100.00,WNW,290,3.0,8.0,15,-99.99,,,-99.99,,2013-05-13 00:41:00,
2013-05-12 17:51:00,73.0,21.0,-100.00,SW,229,2.0,9.0,14,-99.99,,,-99.99,,2013-05-13 00:51:00,
2013-05-12 18:01:00,72.0,22.0,-100.00,South,169,2.0,10.0,15,-99.99,,,-99.99,,2013-05-13 01:01:00,
2013-05-12 18:11:00,72.0,22.0,-100.00,South,169,2.0,10.0,15,-99.99,,,-99.99,,2013-05-13 01:11:00,
2013-05-12 18:21:00,72.0,23.0,-100.00,SE,140,2.0,10.0,16,-99.99,,,-99.99,,2013-05-13 01:21:00,
2013-05-12 18:31:00,72.0,23.0,-100.00,WNW,299,3.0,9.0,16,-99.99,,,-99.99,,2013-05-13 01:31:00,
2013-05-12 18:41:00,71.0,23.0,-100.00,WNW,296,2.0,7.0,16,-99.99,,,-99.99,,2013-05-13 01:41:00,
2013-05-12 18:52:00,71.0,23.0,-100.00,SE,138,3.0,9.0,16,-99.99,,,-99.99,,2013-05-13 01:52:00,
2013-05-12 19:01:00,71.0,24.0,-100.00,SW,222,2.0,7.0,17,-99.99,,,-99.99,,2013-05-13 02:01:00,
2013-05-12 19:11:00,71.0,24.0,-100.00,SE,132,3.0,8.0,17,-99.99,,,-99.99,,2013-05-13 02:11:00,
2013-05-12 19:21:00,70.0,25.0,-100.00,SSE,153,1.0,7.0,18,-99.99,,,-99.99,,2013-05-13 02:21:00,
2013-05-12 19:31:00,70.0,25.0,-100.00,West,275,2.0,5.0,18,-99.99,,,-99.99,,2013-05-13 02:31:00,
2013-05-12 19:41:00,69.0,24.0,-100.00,SE,139,1.0,4.0,18,-99.99,,,-99.99,,2013-05-13 02:41:00,
2013-05-12 19:51:00,69.0,26.0,-100.00,West,264,1.0,3.0,20,-99.99,,,-99.99,,2013-05-13 02:51:00,
2013-05-12 20:01:00,69.0,26.0,-100.00,West,264,1.0,3.0,20,-99.99,,,-99.99,,2013-05-13 03:01:00,
2013-05-12 20:11:00,68.0,25.0,-100.00,SSE,149,1.0,4.0,20,-99.99,,,-99.99,,2013-05-13 03:11:00,
2013-05-12 20:21:00,67.0,25.0,-100.00,SE,136,1.0,4.0,20,-99.99,,,-99.99,,2013-05-13 03:21:00,
2013-05-12 20:32:00,66.0,26.0,-100.00,South,175,1.0,2.0,22,-99.99,,,-99.99,,2013-05-13 03:32:00,
2013-05-12 20:42:00,63.0,27.0,-100.00,SE,129,1.0,1.0,25,-99.99,,,-99.99,,2013-05-13 03:42:00,
2013-05-12 20:52:00,62.0,27.0,-100.00,South,184,1.0,2.0,26,-99.99,,,-99.99,,2013-05-13 03:52:00,
2013-05-12 21:02:00,61.0,29.0,-100.00,ESE,121,1.0,1.0,29,-99.99,,,-99.99,,2013-05-13 04:02:00,
2013-05-12 21:12:00,59.0,28.0,-100.00,ENE,76,1.0,1.0,30,-99.99,,,-99.99,,2013-05-13 04:12:00,
2013-05-12 21:23:00,58.0,28.0,-100.00,ESE,104,1.0,1.0,31,-99.99,,,-99.99,,2013-05-13 04:23:00,
2013-05-12 21:32:00,58.0,28.0,-100.00,ESE,104,1.0,1.0,31,-99.99,,,-99.99,,2013-05-13 04:32:00,
2013-05-12 21:41:00,56.0,27.0,-100.00,ENE,76,1.0,1.0,32,-99.99,,,-99.99,,2013-05-13 04:41:00,
2013-05-12 21:52:00,57.0,27.0,-100.00,East,89,1.0,2.0,31,-99.99,,,-99.99,,2013-05-13 04:52:00,
2013-05-12 22:02:00,57.0,27.0,-100.00,ESE,102,1.0,1.0,31,-99.99,,,-99.99,,2013-05-13 05:02:00,
2013-05-12 22:11:00,56.0,27.0,-100.00,ESE,120,1.0,1.0,33,-99.99,,,-99.99,,2013-05-13 05:11:00,
2013-05-12 22:21:00,55.0,28.0,-100.00,ESE,122,1.0,1.0,35,-99.99,,,-99.99,,2013-05-13 05:21:00,
2013-05-12 22:32:00,55.0,28.0,-100.00,ESE,109,1.0,1.0,35,-99.99,,,-99.99,,2013-05-13 05:32:00,
2013-05-12 22:42:00,55.0,27.0,-100.00,East,89,1.0,1.0,34,-99.99,,,-99.99,,2013-05-13 05:42:00,
2013-05-12 22:51:00,55.0,29.0,-100.00,East,95,1.0,1.0,36,-99.99,,,-99.99,,2013-05-13 05:51:00,
2013-05-12 23:01:00,55.0,29.0,-100.00,ESE,108,1.0,1.0,36,-99.99,,,-99.99,,2013-05-13 06:01:00,
2013-05-12 23:11:00,54.0,28.0,-100.00,ESE,111,1.0,1.0,36,-99.99,,,-99.99,,2013-05-13 06:11:00,
2013-05-12 23:21:00,54.0,28.0,-100.00,ESE,118,1.0,2.0,36,-99.99,,,-99.99,,2013-05-13 06:21:00,
2013-05-12 23:31:00,54.0,28.0,-100.00,ESE,107,1.0,1.0,36,-99.99,,,-99.99,,2013-05-13 06:31:00,
2013-05-12 23:42:00,54.0,28.0,-100.00,ESE,119,1.0,1.0,36,-99.99,,,-99.99,,2013-05-13 06:42:00,
2013-05-12 23:52:00,54.0,28.0,-100.00,ESE,115,1.0,1.0,36,-99.99,,,-99.99,,2013-05-13 06:52:00,